| time (UTC) | temp F | wind direction | speed MPH | gust MPH | rain 1hr in | rain 24hr in | rain mn in | humidity % | barometer mb |
| 20260510221203 | 78 | 276 | 2.0 | 7.0 | 0.00 | 0.00 | 0.00 | 51 | 1010.5 |
| 20260510220603 | 78 | 250 | 2.0 | 7.0 | 0.00 | 0.00 | 0.00 | 51 | 1010.5 |
| 20260510220003 | 78 | 254 | 1.0 | 5.0 | 0.00 | 0.00 | 0.00 | 51 | 1010.6 |
| 20260510215403 | 78 | 250 | 1.0 | 6.0 | 0.00 | 0.00 | 0.00 | 51 | 1010.7 |
| 20260510214803 | 78 | 254 | 2.0 | 6.0 | 0.00 | 0.00 | 0.00 | 51 | 1010.8 |
| 20260510214203 | 78 | 256 | 2.0 | 6.0 | 0.00 | 0.00 | 0.00 | 53 | 1010.8 |
| 20260510213603 | 78 | 240 | 2.0 | 6.0 | 0.00 | 0.00 | 0.00 | 52 | 1011.1 |
| 20260510213003 | 77 | 236 | 3.0 | 7.0 | 0.00 | 0.00 | 0.00 | 52 | 1011.0 |
| 20260510212403 | 77 | 238 | 2.0 | 7.0 | 0.00 | 0.00 | 0.00 | 53 | 1011.0 |
| 20260510211803 | 77 | 275 | 2.0 | 7.0 | 0.00 | 0.00 | 0.00 | 55 | 1011.0 |
| 20260510211203 | 77 | 266 | 3.0 | 8.0 | 0.00 | 0.00 | 0.00 | 55 | 1011.0 |
| 20260510210603 | 77 | 252 | 4.0 | 10.0 | 0.00 | 0.00 | 0.00 | 59 | 1011.0 |
| 20260510210003 | 77 | 257 | 5.0 | 10.0 | 0.00 | 0.00 | 0.00 | 56 | 1011.0 |
| 20260510205424 | 77 | 250 | 4.0 | 9.0 | 0.00 | 0.00 | 0.00 | 58 | 1011.0 |
| 20260510204803 | 77 | 270 | 3.0 | 12.0 | 0.00 | 0.00 | 0.00 | 60 | 1011.0 |
| 20260510204224 | 77 | 267 | 4.0 | 12.0 | 0.00 | 0.00 | 0.00 | 60 | 1011.0 |
| 20260510203603 | 77 | 245 | 3.0 | 9.0 | 0.00 | 0.00 | 0.00 | 61 | 1010.9 |
| 20260510203003 | 77 | 250 | 5.0 | 11.0 | 0.00 | 0.00 | 0.00 | 61 | 1010.9 |
| 20260510202403 | 77 | 249 | 5.0 | 11.0 | 0.00 | 0.00 | 0.00 | 60 | 1010.9 |
| 20260510201803 | 77 | 259 | 5.0 | 12.0 | 0.00 | 0.00 | 0.00 | 61 | 1010.9 |
| 20260510201203 | 78 | 270 | 4.0 | 12.0 | 0.00 | 0.00 | 0.00 | 58 | 1010.9 |
| 20260510200603 | 78 | 248 | 4.0 | 12.0 | 0.00 | 0.00 | 0.00 | 60 | 1010.8 |
| 20260510200003 | 78 | 223 | 4.0 | 11.0 | 0.00 | 0.00 | 0.00 | 60 | 1010.9 |
| 20260510195424 | 78 | 217 | 4.0 | 11.0 | 0.00 | 0.00 | 0.00 | 60 | 1010.9 |
| 20260510194803 | 78 | 215 | 3.0 | 10.0 | 0.00 | 0.00 | 0.00 | 59 | 1010.9 |
| 20260510194203 | 78 | 249 | 3.0 | 9.0 | 0.00 | 0.00 | 0.00 | 60 | 1010.8 |
| 20260510193624 | 78 | 258 | 3.0 | 8.0 | 0.00 | 0.00 | 0.00 | 57 | 1010.8 |
| 20260510193024 | 78 | 240 | 4.0 | 11.0 | 0.00 | 0.00 | 0.00 | 60 | 1010.8 |
| 20260510192403 | 78 | 233 | 3.0 | 11.0 | 0.00 | 0.00 | 0.00 | 59 | 1010.8 |
| 20260510191803 | 78 | 222 | 2.0 | 9.0 | 0.00 | 0.00 | 0.00 | 56 | 1010.8 |
| 20260510191203 | 78 | 216 | 2.0 | 9.0 | 0.00 | 0.00 | 0.00 | 57 | 1010.9 |
| 20260510190624 | 78 | 214 | 2.0 | 8.0 | 0.00 | 0.00 | 0.00 | 55 | 1010.9 |
| 20260510190004 | 78 | 217 | 3.0 | 8.0 | 0.00 | 0.00 | 0.00 | 53 | 1010.9 |
| 20260510185403 | 78 | 218 | 3.0 | 8.0 | 0.00 | 0.00 | 0.00 | 54 | 1011.0 |
| 20260510184803 | 77 | 191 | 1.0 | 5.0 | 0.00 | 0.00 | 0.00 | 57 | 1011.0 |
| 20260510184203 | 77 | 180 | 1.0 | 7.0 | 0.00 | 0.00 | 0.00 | 55 | 1010.9 |
| 20260510183603 | 77 | 231 | 2.0 | 7.0 | 0.00 | 0.00 | 0.00 | 52 | 1010.9 |
| 20260510183003 | 77 | 234 | 2.0 | 7.0 | 0.00 | 0.00 | 0.00 | 52 | 1011.0 |
| 20260510182403 | 78 | 186 | 1.0 | 7.0 | 0.00 | 0.00 | 0.00 | 52 | 1011.0 |
| 20260510181803 | 78 | 155 | 2.0 | 7.0 | 0.00 | 0.00 | 0.00 | 53 | 1011.0 |
| 20260510181203 | 77 | 161 | 2.0 | 7.0 | 0.00 | 0.00 | 0.00 | 54 | 1010.9 |
| 20260510180603 | 77 | 167 | 2.0 | 6.0 | 0.00 | 0.00 | 0.00 | 55 | 1011.0 |
| 20260510180024 | 77 | 178 | 2.0 | 6.0 | 0.00 | 0.00 | 0.00 | 55 | 1011.1 |
| 20260510175403 | 77 | 179 | 1.0 | 7.0 | 0.00 | 0.00 | 0.00 | 57 | 1011.0 |
| 20260510174803 | 77 | 172 | 1.0 | 5.0 | 0.00 | 0.00 | 0.00 | 54 | 1011.0 |
| 20260510174203 | 76 | 180 | 1.0 | 5.0 | 0.00 | 0.00 | 0.00 | 53 | 1011.0 |
| 20260510173603 | 76 | 167 | 1.0 | 5.0 | 0.00 | 0.00 | 0.00 | 54 | 1011.0 |
| 20260510173003 | 76 | 152 | 1.0 | 5.0 | 0.00 | 0.00 | 0.00 | 56 | 1011.0 |
| 20260510172403 | 76 | 139 | 1.0 | 4.0 | 0.00 | 0.00 | 0.00 | 54 | 1010.9 |
| 20260510171824 | 76 | 138 | 1.0 | 6.0 | 0.00 | 0.00 | 0.00 | 54 | 1010.9 |
| 20260510171203 | 76 | 144 | 1.0 | 6.0 | 0.00 | 0.00 | 0.00 | 55 | 1011.0 |
| 20260510170603 | 76 | 137 | 1.0 | 5.0 | 0.00 | 0.00 | 0.00 | 55 | 1011.0 |
| 20260510170003 | 76 | 139 | 1.0 | 5.0 | 0.00 | 0.00 | 0.00 | 56 | 1010.9 |
| 20260510165403 | 75 | 141 | 1.0 | 5.0 | 0.00 | 0.00 | 0.00 | 54 | 1010.9 |
| 20260510164803 | 75 | 126 | 0.0 | 4.0 | 0.00 | 0.00 | 0.00 | 55 | 1010.9 |
| 20260510164203 | 74 | 123 | 0.0 | 6.0 | 0.00 | 0.00 | 0.00 | 54 | 1010.9 |
| 20260510163624 | 73 | 120 | 0.0 | 6.0 | 0.00 | 0.00 | 0.00 | 57 | 1011.0 |
| 20260510163024 | 72 | 114 | 0.0 | 2.0 | 0.00 | 0.00 | 0.00 | 57 | 1011.0 |
| 20260510162403 | 71 | 114 | 0.0 | 4.0 | 0.00 | 0.00 | 0.00 | 62 | 1011.0 |
| 20260510161803 | 70 | 104 | 1.0 | 5.0 | 0.00 | 0.00 | 0.00 | 61 | 1011.1 |
| 20260510161203 | 69 | 98 | 1.0 | 7.0 | 0.00 | 0.00 | 0.00 | 61 | 1011.1 |
| 20260510160603 | 68 | 102 | 2.0 | 8.0 | 0.00 | 0.00 | 0.00 | 63 | 1011.0 |
| 20260510160003 | 67 | 98 | 2.0 | 8.0 | 0.00 | 0.00 | 0.00 | 65 | 1011.0 |
| 20260510155424 | 66 | 104 | 2.0 | 7.0 | 0.00 | 0.00 | 0.00 | 65 | 1011.1 |
| 20260510154803 | 66 | 107 | 1.0 | 6.0 | 0.00 | 0.00 | 0.00 | 65 | 1011.0 |
| 20260510154203 | 65 | 106 | 1.0 | 6.0 | 0.00 | 0.00 | 0.00 | 64 | 1010.9 |
| 20260510153603 | 65 | 105 | 1.0 | 6.0 | 0.00 | 0.00 | 0.00 | 64 | 1010.9 |
| 20260510153006 | 64 | 103 | 2.0 | 7.0 | 0.00 | 0.00 | 0.00 | 64 | 1010.9 |
| 20260510152403 | 64 | 98 | 2.0 | 8.0 | 0.00 | 0.00 | 0.00 | 64 | 1010.9 |
| 20260510151824 | 63 | 99 | 3.0 | 8.0 | 0.00 | 0.00 | 0.00 | 64 | 1010.9 |
| 20260510151203 | 63 | 99 | 3.0 | 7.0 | 0.00 | 0.00 | 0.00 | 63 | 1010.9 |
| 20260510150603 | 62 | 99 | 2.0 | 8.0 | 0.00 | 0.00 | 0.00 | 62 | 1010.9 |
| 20260510150003 | 62 | 102 | 3.0 | 7.0 | 0.00 | 0.00 | 0.00 | 64 | 1010.9 |
| 20260510145403 | 62 | 98 | 3.0 | 8.0 | 0.00 | 0.00 | 0.00 | 62 | 1010.7 |
| 20260510144803 | 62 | 97 | 3.0 | 11.0 | 0.00 | 0.00 | 0.00 | 64 | 1010.7 |
| 20260510144203 | 61 | 97 | 3.0 | 7.0 | 0.00 | 0.00 | 0.00 | 64 | 1010.7 |
| 20260510143603 | 61 | 97 | 3.0 | 11.0 | 0.00 | 0.00 | 0.00 | 65 | 1010.6 |
| 20260510143003 | 61 | 99 | 4.0 | 11.0 | 0.00 | 0.00 | 0.00 | 65 | 1010.6 |
| 20260510142403 | 61 | 99 | 4.0 | 11.0 | 0.00 | 0.00 | 0.00 | 67 | 1010.6 |
| 20260510141803 | 60 | 98 | 4.0 | 11.0 | 0.00 | 0.00 | 0.00 | 70 | 1010.5 |
| 20260510141224 | 60 | 101 | 5.0 | 12.0 | 0.00 | 0.00 | 0.00 | 70 | 1010.4 |
| 20260510140603 | 60 | 100 | 4.0 | 12.0 | 0.00 | 0.00 | 0.00 | 71 | 1010.3 |
| 20260510140003 | 60 | 98 | 4.0 | 11.0 | 0.00 | 0.00 | 0.00 | 70 | 1010.3 |
| 20260510135403 | 60 | 97 | 4.0 | 11.0 | 0.00 | 0.00 | 0.00 | 71 | 1010.2 |
| 20260510134803 | 60 | 101 | 4.0 | 12.0 | 0.00 | 0.00 | 0.00 | 70 | 1010.2 |
| 20260510134204 | 60 | 104 | 4.0 | 9.0 | 0.00 | 0.00 | 0.00 | 70 | 1010.2 |
| 20260510133603 | 60 | 99 | 4.0 | 10.0 | 0.00 | 0.00 | 0.00 | 72 | 1010.1 |
| 20260510133003 | 60 | 100 | 4.0 | 11.0 | 0.00 | 0.00 | 0.00 | 72 | 1010.0 |
| 20260510132403 | 60 | 99 | 3.0 | 9.0 | 0.00 | 0.00 | 0.00 | 72 | 1009.9 |
| 20260510131803 | 60 | 101 | 3.0 | 7.0 | 0.00 | 0.00 | 0.00 | 72 | 1009.9 |
| 20260510131203 | 60 | 100 | 2.0 | 6.0 | 0.00 | 0.00 | 0.00 | 73 | 1009.9 |
| 20260510130603 | 60 | 98 | 2.0 | 6.0 | 0.00 | 0.00 | 0.00 | 73 | 1009.9 |
| 20260510130004 | 60 | 98 | 1.0 | 5.0 | 0.00 | 0.00 | 0.00 | 72 | 1010.0 |
| 20260510125403 | 60 | 98 | 1.0 | 4.0 | 0.00 | 0.00 | 0.00 | 73 | 1009.9 |
| 20260510124803 | 60 | 98 | 1.0 | 6.0 | 0.00 | 0.00 | 0.00 | 74 | 1009.9 |
| 20260510124203 | 60 | 98 | 2.0 | 6.0 | 0.00 | 0.00 | 0.00 | 74 | 1010.0 |
| 20260510123603 | 60 | 100 | 2.0 | 7.0 | 0.00 | 0.00 | 0.00 | 75 | 1009.9 |
| 20260510123003 | 60 | 96 | 2.0 | 7.0 | 0.00 | 0.00 | 0.00 | 75 | 1010.0 |
| 20260510122403 | 60 | 99 | 2.0 | 7.0 | 0.00 | 0.00 | 0.00 | 74 | 1009.9 |
| 20260510121803 | 61 | 98 | 3.0 | 7.0 | 0.00 | 0.00 | 0.00 | 75 | 1009.9 |
| 20260510121224 | 61 | 99 | 2.0 | 7.0 | 0.00 | 0.00 | 0.00 | 75 | 1010.0 |
| 20260510120603 | 61 | 101 | 2.0 | 8.0 | 0.00 | 0.00 | 0.00 | 75 | 1009.9 |
| 20260510120003 | 61 | 100 | 2.0 | 7.0 | 0.00 | 0.00 | 0.00 | 76 | 1010.0 |
| 20260510115403 | 61 | 102 | 2.0 | 8.0 | 0.00 | 0.00 | 0.00 | 76 | 1010.0 |
| 20260510114803 | 61 | 101 | 3.0 | 9.0 | 0.00 | 0.00 | 0.00 | 76 | 1009.9 |
| 20260510114203 | 61 | 101 | 3.0 | 9.0 | 0.00 | 0.00 | 0.00 | 76 | 1010.0 |
| 20260510113603 | 61 | 98 | 4.0 | 9.0 | 0.00 | 0.00 | 0.00 | 77 | 1010.0 |
| 20260510113003 | 61 | 93 | 3.0 | 9.0 | 0.00 | 0.00 | 0.00 | 77 | 1009.9 |
| 20260510112403 | 61 | 94 | 3.0 | 8.0 | 0.00 | 0.00 | 0.00 | 77 | 1010.0 |
| 20260510111803 | 61 | 92 | 3.0 | 8.0 | 0.00 | 0.00 | 0.00 | 77 | 1010.0 |
| 20260510111224 | 61 | 99 | 3.0 | 8.0 | 0.00 | 0.00 | 0.00 | 78 | 1010.1 |
| 20260510110603 | 61 | 103 | 3.0 | 11.0 | 0.00 | 0.00 | 0.00 | 79 | 1010.0 |
| 20260510110003 | 62 | 100 | 3.0 | 11.0 | 0.00 | 0.00 | 0.00 | 79 | 1010.1 |
| 20260510105403 | 62 | 98 | 3.0 | 9.0 | 0.00 | 0.00 | 0.00 | 78 | 1010.1 |
| 20260510104803 | 62 | 96 | 3.0 | 12.0 | 0.00 | 0.00 | 0.00 | 78 | 1010.1 |
| 20260510104224 | 62 | 97 | 4.0 | 10.0 | 0.00 | 0.00 | 0.00 | 78 | 1010.0 |
| 20260510103603 | 62 | 103 | 3.0 | 9.0 | 0.00 | 0.00 | 0.00 | 79 | 1010.0 |
| 20260510103003 | 62 | 100 | 4.0 | 9.0 | 0.00 | 0.00 | 0.00 | 79 | 1010.1 |
| 20260510102403 | 62 | 99 | 4.0 | 9.0 | 0.00 | 0.00 | 0.00 | 79 | 1010.1 |
| 20260510101803 | 62 | 99 | 3.0 | 9.0 | 0.00 | 0.00 | 0.00 | 79 | 1010.0 |
| 20260510101224 | 62 | 100 | 4.0 | 9.0 | 0.00 | 0.00 | 0.00 | 80 | 1010.0 |
| 20260510100603 | 62 | 98 | 3.0 | 9.0 | 0.00 | 0.00 | 0.00 | 80 | 1010.1 |
| 20260510100003 | 62 | 98 | 3.0 | 8.0 | 0.00 | 0.00 | 0.00 | 80 | 1009.9 |
| 20260510095403 | 62 | 97 | 2.0 | 8.0 | 0.00 | 0.00 | 0.00 | 81 | 1009.9 |
| 20260510094803 | 62 | 99 | 2.0 | 7.0 | 0.00 | 0.00 | 0.00 | 81 | 1009.9 |
| 20260510094203 | 62 | 103 | 3.0 | 12.0 | 0.00 | 0.00 | 0.00 | 81 | 1009.9 |
| 20260510093603 | 62 | 102 | 3.0 | 9.0 | 0.00 | 0.00 | 0.00 | 81 | 1009.8 |
| 20260510093024 | 62 | 104 | 3.0 | 9.0 | 0.00 | 0.00 | 0.00 | 81 | 1009.9 |
| 20260510092403 | 62 | 106 | 2.0 | 8.0 | 0.00 | 0.00 | 0.00 | 81 | 1009.9 |
| 20260510091803 | 62 | 108 | 2.0 | 8.0 | 0.00 | 0.00 | 0.00 | 80 | 1009.8 |
| 20260510091203 | 62 | 108 | 1.0 | 5.0 | 0.00 | 0.00 | 0.00 | 80 | 1009.8 |
| 20260510090624 | 62 | 108 | 1.0 | 5.0 | 0.00 | 0.00 | 0.00 | 80 | 1009.9 |
| 20260510090003 | 63 | 109 | 1.0 | 5.0 | 0.00 | 0.00 | 0.00 | 80 | 1009.9 |
| 20260510085403 | 63 | 109 | 1.0 | 6.0 | 0.00 | 0.00 | 0.00 | 80 | 1009.9 |
| 20260510084803 | 63 | 109 | 1.0 | 6.0 | 0.00 | 0.00 | 0.00 | 80 | 1009.8 |
| 20260510084203 | 63 | 110 | 2.0 | 6.0 | 0.00 | 0.00 | 0.00 | 80 | 1009.8 |
| 20260510083603 | 63 | 113 | 2.0 | 7.0 | 0.00 | 0.00 | 0.00 | 80 | 1009.8 |
| 20260510083003 | 63 | 124 | 2.0 | 7.0 | 0.00 | 0.00 | 0.00 | 80 | 1009.9 |
| 20260510082403 | 63 | 130 | 1.0 | 6.0 | 0.00 | 0.00 | 0.00 | 80 | 1009.9 |
| 20260510081803 | 63 | 131 | 1.0 | 6.0 | 0.00 | 0.00 | 0.00 | 80 | 1009.9 |
| 20260510081203 | 63 | 132 | 1.0 | 6.0 | 0.00 | 0.00 | 0.00 | 80 | 1010.0 |
| 20260510080603 | 63 | 132 | 1.0 | 5.0 | 0.00 | 0.00 | 0.00 | 80 | 1010.0 |
| 20260510080024 | 63 | 134 | 1.0 | 5.0 | 0.00 | 0.00 | 0.00 | 80 | 1010.0 |
| 20260510075403 | 63 | 155 | 1.0 | 5.0 | 0.00 | 0.00 | 0.00 | 80 | 1010.0 |
| 20260510074803 | 63 | 182 | 1.0 | 5.0 | 0.00 | 0.00 | 0.00 | 80 | 1010.0 |
| 20260510074224 | 63 | 224 | 0.0 | 3.0 | 0.00 | 0.00 | 0.00 | 79 | 1010.2 |
| 20260510073603 | 63 | 225 | 0.0 | 3.0 | 0.00 | 0.00 | 0.00 | 79 | 1010.1 |
| 20260510073003 | 63 | 226 | 0.0 | 2.0 | 0.00 | 0.00 | 0.00 | 79 | 1010.1 |
| 20260510072403 | 63 | 226 | 0.0 | 3.0 | 0.00 | 0.00 | 0.00 | 79 | 1010.2 |
| 20260510071803 | 63 | 0 | 0.0 | 0.0 | 0.00 | 0.00 | 0.00 | 80 | 1010.2 |
| 20260510071224 | 64 | 0 | 0.0 | 0.0 | 0.00 | 0.00 | 0.00 | 79 | 1010.3 |
| 20260510070603 | 64 | 226 | 0.0 | 1.0 | 0.00 | 0.00 | 0.00 | 79 | 1010.3 |
| 20260510070004 | 64 | 226 | 0.0 | 1.0 | 0.00 | 0.00 | 0.00 | 79 | 1010.2 |
| 20260510065403 | 64 | 226 | 0.0 | 2.0 | 0.00 | 0.00 | 0.00 | 79 | 1010.3 |
| 20260510064803 | 64 | 226 | 0.0 | 2.0 | 0.00 | 0.00 | 0.00 | 79 | 1010.3 |
| 20260510064203 | 64 | 226 | 0.0 | 2.0 | 0.00 | 0.00 | 0.00 | 79 | 1010.3 |
| 20260510063603 | 64 | 226 | 0.0 | 3.0 | 0.00 | 0.00 | 0.00 | 79 | 1010.3 |
| 20260510063003 | 64 | 226 | 0.0 | 2.0 | 0.00 | 0.00 | 0.00 | 79 | 1010.2 |
| 20260510062403 | 64 | 226 | 0.0 | 2.0 | 0.00 | 0.00 | 0.00 | 78 | 1010.4 |
| 20260510061803 | 64 | 226 | 0.0 | 2.0 | 0.00 | 0.00 | 0.00 | 77 | 1010.3 |
| 20260510061203 | 64 | 226 | 0.0 | 2.0 | 0.00 | 0.00 | 0.00 | 77 | 1010.3 |
| 20260510060603 | 64 | 226 | 0.0 | 2.0 | 0.00 | 0.00 | 0.00 | 76 | 1010.2 |
| 20260510060003 | 64 | 226 | 0.0 | 2.0 | 0.00 | 0.00 | 0.00 | 76 | 1010.1 |
| 20260510055424 | 64 | 226 | 0.0 | 2.0 | 0.00 | 0.00 | 0.00 | 75 | 1010.2 |
| 20260510054803 | 64 | 226 | 0.0 | 2.0 | 0.00 | 0.00 | 0.00 | 75 | 1010.2 |
| 20260510054203 | 64 | 226 | 0.0 | 2.0 | 0.00 | 0.00 | 0.00 | 75 | 1010.2 |
| 20260510053624 | 64 | 226 | 0.0 | 2.0 | 0.00 | 0.00 | 0.00 | 74 | 1010.3 |
| 20260510053003 | 65 | 226 | 0.0 | 2.0 | 0.00 | 0.00 | 0.00 | 74 | 1010.1 |
| 20260510052403 | 65 | 226 | 0.0 | 2.0 | 0.00 | 0.00 | 0.00 | 73 | 1010.2 |
| 20260510051824 | 65 | 226 | 0.0 | 2.0 | 0.00 | 0.00 | 0.00 | 74 | 1010.2 |
| 20260510051203 | 65 | 226 | 0.0 | 2.0 | 0.00 | 0.00 | 0.00 | 74 | 1010.2 |
| 20260510050603 | 65 | 226 | 0.0 | 2.0 | 0.00 | 0.00 | 0.00 | 74 | 1010.2 |
| 20260510050003 | 66 | 226 | 0.0 | 2.0 | 0.00 | 0.00 | 0.00 | 73 | 1010.1 |
| 20260510045403 | 66 | 226 | 0.0 | 2.0 | 0.00 | 0.00 | 0.00 | 73 | 1010.2 |
| 20260510044803 | 66 | 226 | 0.0 | 2.0 | 0.00 | 0.00 | 0.00 | 73 | 1010.2 |
| 20260510044224 | 66 | 226 | 1.0 | 2.0 | 0.00 | 0.00 | 0.00 | 73 | 1010.1 |
| 20260510043624 | 66 | 226 | 0.0 | 2.0 | 0.00 | 0.00 | 0.00 | 73 | 1010.1 |
| 20260510043004 | 66 | 226 | 0.0 | 2.0 | 0.00 | 0.00 | 0.00 | 73 | 1010.1 |
| 20260510042403 | 66 | 226 | 1.0 | 2.0 | 0.00 | 0.00 | 0.00 | 73 | 1010.1 |
| 20260510041803 | 66 | 226 | 1.0 | 2.0 | 0.00 | 0.00 | 0.00 | 73 | 1010.0 |
| 20260510041203 | 66 | 226 | 0.0 | 2.0 | 0.00 | 0.00 | 0.00 | 73 | 1010.0 |
| 20260510040624 | 66 | 226 | 0.0 | 2.0 | 0.00 | 0.00 | 0.00 | 73 | 1010.1 |
| 20260510040003 | 67 | 226 | 0.0 | 2.0 | 0.00 | 0.00 | 0.00 | 73 | 1010.0 |
| 20260510035403 | 67 | 226 | 0.0 | 2.0 | 0.00 | 0.00 | 0.00 | 72 | 1009.9 |
| 20260510034803 | 67 | 226 | 0.0 | 2.0 | 0.00 | 0.00 | 0.00 | 72 | 1010.0 |
| 20260510034203 | 68 | 226 | 0.0 | 2.0 | 0.00 | 0.00 | 0.00 | 72 | 1009.8 |
| 20260510033603 | 68 | 226 | 0.0 | 2.0 | 0.00 | 0.00 | 0.00 | 71 | 1009.8 |
| 20260510033024 | 68 | 226 | 0.0 | 2.0 | 0.00 | 0.00 | 0.00 | 70 | 1009.8 |
| 20260510032403 | 69 | 226 | 1.0 | 3.0 | 0.00 | 0.00 | 0.00 | 69 | 1009.7 |
| 20260510031803 | 69 | 226 | 0.0 | 3.0 | 0.00 | 0.00 | 0.00 | 69 | 1009.6 |
| 20260510031224 | 70 | 226 | 0.0 | 3.0 | 0.00 | 0.00 | 0.00 | 68 | 1009.7 |
| 20260510030603 | 70 | 227 | 1.0 | 4.0 | 0.00 | 0.00 | 0.00 | 67 | 1009.6 |
| 20260510030024 | 71 | 227 | 1.0 | 3.0 | 0.00 | 0.00 | 0.00 | 66 | 1009.7 |
| 20260510025403 | 71 | 227 | 0.0 | 3.0 | 0.00 | 0.00 | 0.00 | 64 | 1009.6 |
| 20260510024803 | 72 | 227 | 0.0 | 2.0 | 0.00 | 0.00 | 0.00 | 63 | 1009.6 |
| 20260510024203 | 72 | 227 | 0.0 | 2.0 | 0.00 | 0.00 | 0.00 | 62 | 1009.6 |
| 20260510023603 | 73 | 227 | 1.0 | 5.0 | 0.00 | 0.00 | 0.00 | 61 | 1009.5 |
| 20260510023003 | 73 | 228 | 1.0 | 5.0 | 0.00 | 0.00 | 0.00 | 59 | 1009.6 |
| 20260510022403 | 73 | 229 | 1.0 | 5.0 | 0.00 | 0.00 | 0.00 | 58 | 1009.6 |
| 20260510021803 | 74 | 226 | 2.0 | 7.0 | 0.00 | 0.00 | 0.00 | 58 | 1009.6 |
| 20260510021203 | 74 | 221 | 2.0 | 7.0 | 0.00 | 0.00 | 0.00 | 57 | 1009.6 |
| 20260510020624 | 74 | 229 | 1.0 | 5.0 | 0.00 | 0.00 | 0.00 | 58 | 1009.6 |
| 20260510020003 | 74 | 238 | 1.0 | 6.0 | 0.00 | 0.00 | 0.00 | 56 | 1009.6 |
| 20260510015403 | 75 | 241 | 1.0 | 5.0 | 0.00 | 0.00 | 0.00 | 59 | 1009.5 |
| 20260510014824 | 75 | 245 | 1.0 | 5.0 | 0.00 | 0.00 | 0.00 | 57 | 1009.6 |
| 20260510014203 | 75 | 263 | 1.0 | 5.0 | 0.00 | 0.00 | 0.00 | 55 | 1009.6 |
| 20260510013603 | 75 | 260 | 1.0 | 5.0 | 0.00 | 0.00 | 0.00 | 55 | 1009.5 |
| 20260510013024 | 76 | 264 | 1.0 | 5.0 | 0.00 | 0.00 | 0.00 | 55 | 1009.5 |
| 20260510012403 | 76 | 258 | 2.0 | 6.0 | 0.00 | 0.00 | 0.00 | 55 | 1009.5 |
| 20260510011803 | 76 | 258 | 1.0 | 6.0 | 0.00 | 0.00 | 0.00 | 55 | 1009.4 |
| 20260510011203 | 76 | 256 | 1.0 | 3.0 | 0.00 | 0.00 | 0.00 | 54 | 1009.4 |
| 20260510010603 | 76 | 250 | 2.0 | 6.0 | 0.00 | 0.00 | 0.00 | 56 | 1009.4 |
| 20260510010024 | 76 | 245 | 3.0 | 7.0 | 0.00 | 0.00 | 0.00 | 54 | 1009.4 |
| 20260510005424 | 76 | 253 | 2.0 | 7.0 | 0.00 | 0.00 | 0.00 | 55 | 1009.6 |
| 20260510004803 | 76 | 268 | 2.0 | 7.0 | 0.00 | 0.00 | 0.00 | 54 | 1009.5 |
| 20260510004203 | 76 | 259 | 2.0 | 7.0 | 0.00 | 0.00 | 0.00 | 55 | 1009.5 |
| 20260510003624 | 76 | 265 | 2.0 | 6.0 | 0.00 | 0.00 | 0.00 | 55 | 1009.6 |
| 20260510003004 | 76 | 242 | 2.0 | 7.0 | 0.00 | 0.00 | 0.00 | 56 | 1009.6 |
| 20260510002403 | 76 | 265 | 2.0 | 7.0 | 0.00 | 0.00 | 0.00 | 55 | 1009.7 |
| 20260510001803 | 76 | 293 | 2.0 | 6.0 | 0.00 | 0.00 | 0.00 | 54 | 1009.8 |
| 20260510001224 | 76 | 300 | 2.0 | 8.0 | 0.00 | 0.00 | 0.00 | 55 | 1009.8 |
| 20260510000603 | 76 | 292 | 3.0 | 8.0 | 0.00 | 0.00 | 0.00 | 53 | 1009.8 |
| 20260510000003 | 76 | 297 | 3.0 | 9.0 | 0.00 | 0.00 | 0.00 | 55 | 1009.9 |
| 20260509235403 | 77 | 300 | 2.0 | 9.0 | 0.00 | 0.00 | 0.00 | 54 | 1010.0 |
| 20260509234824 | 77 | 272 | 1.0 | 8.0 | 0.00 | 0.00 | 0.00 | 54 | 1010.0 |
| 20260509234203 | 77 | 279 | 2.0 | 8.0 | 0.00 | 0.00 | 0.00 | 54 | 1010.1 |
| 20260509233603 | 77 | 258 | 2.0 | 8.0 | 0.00 | 0.00 | 0.00 | 53 | 1010.1 |
| 20260509233003 | 76 | 269 | 2.0 | 8.0 | 0.00 | 0.00 | 0.00 | 54 | 1010.1 |
| 20260509232403 | 77 | 251 | 3.0 | 8.0 | 0.00 | 0.00 | 0.00 | 53 | 1010.0 |
| 20260509231803 | 77 | 247 | 3.0 | 7.0 | 0.00 | 0.00 | 0.00 | 53 | 1010.0 |
| 20260509231203 | 77 | 255 | 4.0 | 8.0 | 0.00 | 0.00 | 0.00 | 54 | 1010.1 |
| 20260509230624 | 77 | 256 | 4.0 | 11.0 | 0.00 | 0.00 | 0.00 | 54 | 1010.2 |
| 20260509230003 | 77 | 271 | 4.0 | 11.0 | 0.00 | 0.00 | 0.00 | 52 | 1010.2 |
| 20260509225403 | 77 | 283 | 3.0 | 11.0 | 0.00 | 0.00 | 0.00 | 52 | 1010.2 |
| 20260509224803 | 77 | 266 | 2.0 | 10.0 | 0.00 | 0.00 | 0.00 | 52 | 1010.2 |
| 20260509224203 | 77 | 259 | 2.0 | 8.0 | 0.00 | 0.00 | 0.00 | 52 | 1010.4 |
| 20260509223603 | 77 | 249 | 2.0 | 8.0 | 0.00 | 0.00 | 0.00 | 51 | 1010.4 |
| 20260509223003 | 77 | 263 | 3.0 | 8.0 | 0.00 | 0.00 | 0.00 | 52 | 1010.4 |
| 20260509222403 | 77 | 272 | 3.0 | 7.0 | 0.00 | 0.00 | 0.00 | 50 | 1010.5 |
| 20260509221803 | 77 | 258 | 1.0 | 6.0 | 0.00 | 0.00 | 0.00 | 50 | 1010.5 |
| 20260509221224 | 77 | 285 | 2.0 | 7.0 | 0.00 | 0.00 | 0.00 | 51 | 1010.5 |